Regional Weather Roundup
Issued by NWS

Home | Current Version | Previous Version | Graphics & Text | Print | Product List | Glossary On
Versions: 1 2 3 4 5 6 7 8 9 10 11 12 13 14 15 16 17 18 19 20 21 22 23 24 25 26 27 28 29 30 31 32 33 34 35 36 37 38 39 40 41 42 43 44 45
000
ASUS45 KBOU 252207
RWRCO

WEATHER ROUNDUP FOR COLORADO
NATIONAL WEATHER SERVICE DENVER/BOULDER CO
300 PM MST THU DEC 25 2014

NOTE: "FAIR" INDICATES FEW OR NO CLOUDS BELOW 12000 FEET WITH NO
SIGNIFICANT WEATHER AND/OR OBSTRUCTIONS TO VISIBILITY.

COZ001>005-013-030-031-252300-
...NORTHWEST COLORADO...

CITY           SKY/WX    TMP DP  RH WIND       PRES   REMARKS
CRAIG          LGT SNOW  32  29  88 W13       29.51R VSB 1   WCI  22
HAYDEN         CLOUDY    30  27  86 CALM      29.50R VSB 1/2
MEEKER         CLOUDY    35  23  61 S13       29.49R WCI  26
MOUNT WERNER   NOT AVBL
STEAMBOAT SPGS CLOUDY    28  26  92 CALM      29.49R VSB 3/4
WALDEN         CLOUDY    30  27  86 N6        29.47R VSB 1   WCI  24
$$

COZ006>008-011-252300-
...WEST CENTRAL VALLEYS...

CITY           SKY/WX    TMP DP  RH WIND       PRES   REMARKS
GRAND JUNCTION LGT SNOW  31  31 100 NW15      29.52R FOG     WCI  20
MONTROSE       PTSUNNY   42  19  39 VRB7G18   29.52S
EAGLE          MOSUNNY   37  21  52 W8        29.51R
RIFLE          CLOUDY    32  28  85 CALM      29.52R
DELTA          PTSUNNY   42  23  47 CALM      29.54R
NUCLA          PTSUNNY   34  28  80 S13G23    29.57S WCI  25
$$

COZ017>023-064>068-252300-
...SOUTHWEST COLORADO...

CITY           SKY/WX    TMP DP  RH WIND       PRES   REMARKS
DURANGO        CLOUDY    32  26  78 N3        29.60R
CORTEZ         CLOUDY    37  20  50 SW14      29.57S
PAGOSA SPRINGS LGT SNOW  30  26  86 W6        29.59S WCI  24
TELLURIDE      LGT SNOW  25  18  74 W3        29.53S
WOLF CREEK PAS HVY SNOW  12  10  92 MISG      29.51S VSB 1/4
$$

COZ009-010-012-014-032>034-037-058>063-252300-
...CENTRAL COLORADO...

CITY           SKY/WX    TMP DP  RH WIND       PRES   REMARKS
ASPEN          PTSUNNY   31  23  72 NW6       29.48R WCI  25
BUENA VISTA    MOSUNNY   37  15  41 S12       29.49R
COPPER MTN     LGT SNOW  21  12  68 S25G35    29.47S WCI   4
BERTHOUD PASS  HAZE      12   5  73 MISG      29.50R VSB<1/4
COTTONWOOD PAS MOSUNNY   30  14  51 W6        29.51R WCI  24
GUNNISON       MOSUNNY   18  10  73 CALM      29.57S
KREMMLING      CLOUDY    30  23  74 E3        29.51R
LEADVILLE      PTSUNNY   23  14  68 SE14      29.48R WCI  11
MONARCH PASS   CLOUDY    18  12  79 MISG      29.61R
SALIDA         MOSUNNY   39  13  34 S9G21     29.58R
SUNLIGHT       LGT SNOW  23  21  93 MISG      29.50R
WILKERSON PASS SUNNY     23  10  58 S7        29.52R WCI  15
$$

COZ069>075-252300-
...SAN LUIS VALLEY/SANGRE DE CRISTO MOUNTAINS...

CITY           SKY/WX    TMP DP  RH WIND       PRES   REMARKS
ALAMOSA        MOSUNNY   36  20  52 S17       29.57R
LA VETA PASS   NOT AVBL
SAGUACHE       SUNNY     27  14  59 CALM      29.57R
$$

COZ035-036-038>040-252300-
...NORTHERN COLORADO FRONT RANGE...

CITY           SKY/WX    TMP DP  RH WIND       PRES   REMARKS
DENVER INTL AP CLOUDY    35  29  78 N14       29.55R WCI  26
DMNS CITY PARK   N/A     36  29  77 NE6G16    29.55R
AURORA         FLURRIES  35  29  79 N10       29.55R WCI  27
FRONT RANGE AP NOT AVBL
ERIE MUNI ARPT   N/A     34  32  94 N9        29.56R WCI  26
BOULDER MUN AP LGT SNOW  32  32 100 N8        29.56R WCI  25
CENTENNIAL     CLOUDY    35  29  78 NE10      29.53R WCI  27
BROOMFIELD     CLOUDY    34  32  93 N10         N/A  WCI  26
FORT COLLINS   CLOUDY    32  30  93 N7        29.58R WCI  26
LONGMONT       LGT SNOW  35  33  93 N3        29.59R VSB 1
$$

COZ041-046-047-076>085-087-088-252300-
...PIKES PEAK/PALMER DIVIDE AND SOUTHERN FOOTHILLS...

CITY           SKY/WX    TMP DP  RH WIND       PRES   REMARKS
COLO. SPRINGS  MOSUNNY   43  22  43 N16       29.50R
A. F. ACADEMY  MOSUNNY   38  22  53 N17       29.50R
ELLICOTT       NOT AVBL
FALCON         SUNNY     38  23  56 N15G22    29.50R
FORT CARSON    SUNNY     46  20  35 N13       29.48R
LIMON          PTSUNNY   38  27  64 NE20      29.51R
MONUMENT HILL  PTSUNNY   32  27  80 N13       29.51R WCI  22
TRINIDAD       SUNNY     46  20  35 SW30G36   29.52R
$$

COZ042>045-048>051-090-091-252300-
...NORTHEAST COLORADO...

CITY           SKY/WX    TMP DP  RH WIND       PRES   REMARKS
GREELEY ARPT   CLOUDY    30  27  86 NE14      29.58R WCI  20
AKRON          CLOUDY    31  29  92 N21G28    29.56R WCI  18
BURLINGTON     SUNNY     40  26  57 N15       29.50R
WRAY           SUNNY     41  29  63 N15G22    29.55R
STERLING       LGT SNOW  32  32 100 NE13      29.58R WCI  22
HOLYOKE        PTSUNNY   37  30  75 N20       29.57R
FORT MORGAN    CLOUDY    31  27  84 N20       29.59R WCI  19
$$

COZ086-089-092>099-252300-
...SOUTHEAST COLORADO...

CITY           SKY/WX    TMP DP  RH WIND       PRES   REMARKS
PUEBLO         SUNNY     54  12  18 W21G30    29.45R
LA JUNTA       SUNNY     58  16  19 W22G37    29.47R
LAMAR          MOSUNNY   61  25  25 W15       29.45R
SPRINGFIELD      N/A     58  18  21 SW22G30   29.50R
$$


USA.gov is the U.S. government's official web portal to all federal, state and local government web resources and services.